Estherville, IA

2:09 AM CST on February 10, 2016 (GMT -0600)
Estherville Municipal

Weather History for KEST - June, 2014

Change the Weather History Date:

Monday, June 16, 2014

  Actual Average Record
Temperature  
Mean Temperature 65 °F 69 °F  
Max Temperature 74 °F 80 °F 96 °F (1959)
Min Temperature 56 °F 57 °F 43 °F (1968)
Degree Days  
Heating Degree Days 0 1  
Month to date heating degree days 31 33  
Since 1 June heating degree days 31 33  
Since 1 July heating degree days 8574 7731  
Cooling Degree Days 0 5  
Month to date cooling degree days 21 54  
Year to date cooling degree days 70 90  
Since 1 June cooling degree days 21 54  
Growing Degree Days 14 (Base 50)    
Moisture  
Dew Point 63 °F    
Average Humidity 90    
Maximum Humidity 100    
Minimum Humidity 79    
Precipitation  
Precipitation 2.92 in 0.13 in 2.92 in (2014)
Month to date precipitation 7.29 2.32  
Sea Level Pressure  
Sea Level Pressure 29.78 in    
Wind  
Wind Speed 17 mph (ESE)    
Max Wind Speed 63 mph    
Max Gust Speed 80 mph    
Visibility 7 miles    
Events Fog , Rain , Thunderstorm    
T = Trace of Precipitation, MM = Missing Value Source: NWS Daily Summary

Daily Weather History Graph

Daily Weather History Graph

Search for Another Location

Airport or City:

Trip Planner

Search our weather history database for the weather conditions in past years. The results will help you decide how hot, cold, wet, or windy it might be!

Date:

Astronomy

Jun. 16, 2014 Rise Set
Actual Time 5:37 AM CDT 9:01 PM CDT
Civil Twilight 5:02 AM CDT 9:37 PM CDT
Nautical Twilight 4:15 AM CDT 10:24 PM CDT
Astronomical Twilight 3:17 AM CDT 11:22 PM CDT
Moon 11:46 PM CDT (6/16) 9:48 AM CDT (6/16)
Length of Visible Light 16h 35m
Length of Day
15h 24m
Waning Gibbous, 83% of the Moon is Illuminated
Jun 16
Waning Gibbous
Jun 19
Last Quarter
Jun 27
New
Jul 5
First Quarter
Jul 12
Full

Hourly Weather History & Observations

Time (CDT) Temp. Dew Point Humidity Pressure Visibility Wind Dir Wind Speed Gust Speed Precip Events Conditions
12:52 AM 61.0 °F 57.0 °F 87% 29.89 in 10.0 mi SSW 9.2 mph - N/A   Clear
1:52 AM 62.1 °F 57.0 °F 84% 29.89 in 10.0 mi South 10.4 mph - N/A   Clear
2:52 AM 57.0 °F 55.9 °F 96% 29.88 in 10.0 mi South 8.1 mph - N/A   Clear
3:52 AM 55.9 °F 55.0 °F 97% 29.89 in 10.0 mi South 8.1 mph - N/A   Clear
4:52 AM 55.9 °F 55.9 °F 100% 29.90 in 10.0 mi South 9.2 mph - N/A   Clear
5:52 AM 57.0 °F 55.9 °F 96% 29.89 in 10.0 mi South 11.5 mph - N/A   Clear
6:52 AM 60.1 °F 57.9 °F 93% 29.90 in 10.0 mi South 8.1 mph - N/A   Clear
7:52 AM 64.0 °F 61.0 °F 90% 29.91 in 10.0 mi South 11.5 mph - N/A   Clear
8:52 AM 69.1 °F 64.9 °F 87% 29.87 in 10.0 mi South 16.1 mph - N/A   Clear
9:52 AM 73.0 °F 66.9 °F 81% 29.87 in 10.0 mi South 19.6 mph 27.6 mph N/A   Clear
10:52 AM 72.0 °F 66.0 °F 81% 29.88 in 10.0 mi South 20.7 mph 26.5 mph N/A   Clear
11:52 AM 70.0 °F 64.9 °F 84% 29.88 in 10.0 mi South 9.2 mph - N/A   Clear
12:52 PM 70.0 °F 66.9 °F 90% 29.87 in 10.0 mi South 20.7 mph 31.1 mph 0.00 in Rain Light Rain
1:52 PM 73.0 °F 66.9 °F 81% 29.74 in 10.0 mi SSE 29.9 mph 36.8 mph 0.01 in   Clear
2:52 PM 71.1 °F 63.0 °F 75% 29.73 in 10.0 mi SSE 9.2 mph - N/A Thunderstorm Thunderstorm
3:12 PM 70.0 °F 64.9 °F 84% 29.71 in 10.0 mi SSE 20.7 mph 28.8 mph 0.01 in Rain Light Rain
4:32 PM 73.0 °F 71.1 °F 93% 29.64 in 8.0 mi SE 18.4 mph 25.3 mph N/A Thunderstorm Thunderstorm
4:52 PM 73.0 °F 72.0 °F 96% 29.58 in 4.0 mi SSE 26.5 mph 35.7 mph 0.05 in Rain , Thunderstorm Thunderstorms and Rain
4:59 PM 71.1 °F 69.1 °F 93% 29.71 in 5.0 mi West 43.7 mph 52.9 mph 0.01 in Rain , Thunderstorm Light Thunderstorms and Rain
5:02 PM 64.0 °F 63.0 °F 96% 29.69 in 1.0 mi WNW 42.6 mph 55.2 mph 0.26 in Rain , Thunderstorm Light Thunderstorms and Rain
5:05 PM 62.1 °F 61.0 °F 96% 29.66 in 0.5 mi NW 38.0 mph 55.2 mph 0.60 in Fog , Rain , Thunderstorm Heavy Thunderstorms and Rain
5:10 PM 59.0 °F 59.0 °F 100% 29.58 in 0.2 mi NNW 49.5 mph 66.7 mph 0.91 in Fog , Rain , Thunderstorm Heavy Thunderstorms and Rain
5:34 PM 60.1 °F - N/A% 29.67 in 1.0 mi North 44.9 mph 64.4 mph 1.67 in Rain , Thunderstorm Heavy Thunderstorms and Rain
5:41 PM 60.1 °F - N/A% 29.68 in 2.0 mi North 44.9 mph 61.0 mph 1.70 in Rain , Thunderstorm Heavy Thunderstorms and Rain
5:45 PM 60.1 °F - N/A% 29.76 in 3.0 mi North 27.6 mph 56.4 mph 1.73 in Rain , Thunderstorm Heavy Thunderstorms and Rain
5:52 PM 61.0 °F - N/A% 29.77 in 4.0 mi North 28.8 mph 46.0 mph 1.75 in Rain , Thunderstorm Rain
6:05 PM 61.0 °F - N/A% 29.81 in 5.0 mi North 19.6 mph 34.5 mph 0.05 in Rain , Thunderstorm Thunderstorms and Rain
6:20 PM 61.0 °F - N/A% 29.81 in 2.5 mi North 18.4 mph - 0.21 in Rain , Thunderstorm Heavy Thunderstorms and Rain
6:32 PM 61.0 °F - N/A% 29.81 in 4.0 mi NNE 13.8 mph 25.3 mph 0.27 in Rain , Thunderstorm Heavy Thunderstorms and Rain
6:45 PM 61.0 °F - N/A% 29.84 in 8.0 mi NNE 8.1 mph - 0.28 in Rain , Thunderstorm Light Rain
6:52 PM 61.0 °F - N/A% 29.83 in 7.0 mi NE 16.1 mph - 0.30 in Rain , Thunderstorm Rain
7:05 PM 61.0 °F - N/A% 29.82 in 6.0 mi NE 16.1 mph - 0.02 in Rain , Thunderstorm Thunderstorms and Rain
7:25 PM 61.0 °F - N/A% 29.72 in 10.0 mi NE 28.8 mph 38.0 mph 0.04 in Rain , Thunderstorm Light Rain
7:50 PM 62.6 °F - N/A% 29.73 in 10.0 mi NE 25.3 mph - 0.04 in   Scattered Clouds
7:52 PM 62.1 °F - N/A% 29.73 in 10.0 mi NE 25.3 mph - 0.04 in Thunderstorm Scattered Clouds
8:13 PM 62.1 °F - N/A% 29.69 in 9.0 mi ENE 27.6 mph 38.0 mph 0.01 in Rain Light Rain
8:24 PM 62.1 °F - N/A% 29.70 in 10.0 mi ENE 26.5 mph 36.8 mph 0.01 in Rain , Thunderstorm Light Thunderstorms and Rain
8:50 PM 62.6 °F - N/A% 29.81 in 3.0 mi ENE 6.9 mph - 0.22 in Rain , Thunderstorm Heavy Rain
8:52 PM 62.1 °F - N/A% 29.80 in 3.0 mi ENE 6.9 mph - 0.24 in Rain , Thunderstorm Heavy Thunderstorms and Rain
9:24 PM 61.0 °F - N/A% 29.72 in 9.0 mi East 17.3 mph - 0.10 in Rain , Thunderstorm Light Rain
9:34 PM 61.0 °F - N/A% 29.70 in 10.0 mi East 20.7 mph 25.3 mph 0.10 in Rain , Thunderstorm Light Thunderstorms and Rain
9:52 PM 61.0 °F - N/A% 29.68 in 10.0 mi East 23.0 mph 31.1 mph 0.10 in Rain , Thunderstorm Light Thunderstorms and Rain
9:59 PM 62.1 °F - N/A% 29.70 in 9.0 mi East 19.6 mph 29.9 mph 0.01 in Rain Light Rain
10:21 PM 62.1 °F - N/A% 29.75 in 6.0 mi ESE 19.6 mph - 0.05 in Rain , Thunderstorm Rain
10:52 PM 62.1 °F - N/A% 29.78 in 6.0 mi ESE 13.8 mph 26.5 mph 0.09 in Rain Light Rain
11:52 PM 61.0 °F - N/A% 29.81 in 5.0 mi ESE 9.2 mph - 0.19 in Rain Rain